TimeEDT,TemperatureF,Dew PointF,Humidity,Sea Level PressureIn,VisibilityMPH,Wind Direction,Wind SpeedMPH,Gust SpeedMPH,PrecipitationIn,Events,Conditions,WindDirDegrees,DateUTC
12:15 AM,53.6,53.6,100,29.97,2.5,Calm,Calm,-,N/A,,Overcast,0,2013-05-08 04:15:00
12:35 AM,53.6,53.6,100,29.97,1.0,West,3.5,-,N/A,,Overcast,280,2013-05-08 04:35:00
12:55 AM,53.6,51.8,94,29.97,0.2,Calm,Calm,-,N/A,,Overcast,0,2013-05-08 04:55:00
1:15 AM,53.6,51.8,94,29.96,0.2,Calm,Calm,-,N/A,,Overcast,0,2013-05-08 05:15:00
1:35 AM,53.6,51.8,94,29.96,0.2,Calm,Calm,-,N/A,,Overcast,0,2013-05-08 05:35:00
1:55 AM,53.6,51.8,94,29.95,0.2,Calm,Calm,-,N/A,,Overcast,0,2013-05-08 05:55:00
2:15 AM,53.6,51.8,94,29.95,0.5,Calm,Calm,-,N/A,,Overcast,0,2013-05-08 06:15:00
2:35 AM,53.6,51.8,94,29.94,0.5,Calm,Calm,-,N/A,,Overcast,0,2013-05-08 06:35:00
2:55 AM,53.6,51.8,94,29.94,0.2,Calm,Calm,-,N/A,,Overcast,0,2013-05-08 06:55:00
3:15 AM,53.6,51.8,94,29.94,0.8,Calm,Calm,-,N/A,,Overcast,0,2013-05-08 07:15:00
3:35 AM,53.6,51.8,94,29.93,0.5,Calm,Calm,-,N/A,,Overcast,0,2013-05-08 07:35:00
3:55 AM,53.6,51.8,94,29.93,0.5,WNW,3.5,-,N/A,,Overcast,300,2013-05-08 07:55:00
4:15 AM,53.6,51.8,94,29.94,0.2,SSE,3.5,-,N/A,,Overcast,160,2013-05-08 08:15:00
4:35 AM,53.6,51.8,94,29.94,0.2,Calm,Calm,-,N/A,,Overcast,0,2013-05-08 08:35:00
4:55 AM,53.6,51.8,94,29.94,0.2,Calm,Calm,-,N/A,,Overcast,0,2013-05-08 08:55:00
5:15 AM,53.6,51.8,94,29.94,0.5,Calm,Calm,-,N/A,,Overcast,0,2013-05-08 09:15:00
5:35 AM,53.6,53.6,100,29.95,0.5,Calm,Calm,-,N/A,,Overcast,0,2013-05-08 09:35:00
5:55 AM,53.6,53.6,100,29.95,0.5,Calm,Calm,-,N/A,,Overcast,0,2013-05-08 09:55:00
6:15 AM,53.6,51.8,94,29.95,1.0,Calm,Calm,-,N/A,,Overcast,0,2013-05-08 10:15:00
6:35 AM,53.6,53.6,100,29.96,1.5,Calm,Calm,-,N/A,,Overcast,0,2013-05-08 10:35:00
6:55 AM,53.6,53.6,100,29.96,2.0,Calm,Calm,-,N/A,,Overcast,0,2013-05-08 10:55:00
7:15 AM,53.6,53.6,100,29.97,4.0,Calm,Calm,-,N/A,,Overcast,0,2013-05-08 11:15:00
7:35 AM,53.6,53.6,100,29.98,4.0,Calm,Calm,-,N/A,,Overcast,0,2013-05-08 11:35:00
7:55 AM,53.6,53.6,100,29.99,4.0,Calm,Calm,-,N/A,,Overcast,0,2013-05-08 11:55:00
8:15 AM,55.4,53.6,94,29.99,7.0,Calm,Calm,-,N/A,,Overcast,0,2013-05-08 12:15:00
8:35 AM,55.4,53.6,94,29.99,10.0,Calm,Calm,-,N/A,,Overcast,0,2013-05-08 12:35:00
8:55 AM,55.4,53.6,94,29.99,7.0,WSW,3.5,-,N/A,,Overcast,250,2013-05-08 12:55:00
9:15 AM,55.4,53.6,94,30.00,10.0,West,4.6,-,N/A,,Overcast,260,2013-05-08 13:15:00
9:35 AM,57.2,53.6,88,30.00,10.0,WSW,4.6,-,N/A,,Overcast,250,2013-05-08 13:35:00
9:55 AM,59.0,53.6,82,30.01,10.0,WSW,4.6,-,N/A,,Overcast,250,2013-05-08 13:55:00
10:15 AM,59.0,53.6,82,30.01,10.0,West,5.8,-,N/A,,Overcast,260,2013-05-08 14:15:00
10:35 AM,60.8,53.6,77,30.01,10.0,Calm,Calm,-,N/A,,Overcast,0,2013-05-08 14:35:00
10:55 AM,60.8,53.6,77,30.01,10.0,West,6.9,-,N/A,,Overcast,260,2013-05-08 14:55:00
11:15 AM,62.6,53.6,72,30.01,10.0,Calm,Calm,-,N/A,,Overcast,0,2013-05-08 15:15:00
11:35 AM,60.8,53.6,77,30.01,10.0,WSW,5.8,-,N/A,,Overcast,250,2013-05-08 15:35:00
11:55 AM,62.6,53.6,72,30.01,10.0,WSW,10.4,16.1,N/A,,Overcast,250,2013-05-08 15:55:00
12:15 PM,64.4,53.6,68,30.02,10.0,WSW,3.5,-,N/A,,Overcast,250,2013-05-08 16:15:00
12:35 PM,64.4,53.6,68,30.01,10.0,WNW,8.1,-,N/A,,Mostly Cloudy,300,2013-05-08 16:35:00
12:55 PM,66.2,51.8,60,30.01,10.0,WSW,6.9,-,N/A,,Mostly Cloudy,250,2013-05-08 16:55:00
1:15 PM,64.4,51.8,64,30.01,10.0,WSW,4.6,-,N/A,,Overcast,240,2013-05-08 17:15:00
1:35 PM,64.4,51.8,64,30.00,10.0,WNW,5.8,-,N/A,,Overcast,300,2013-05-08 17:35:00
1:55 PM,66.2,51.8,60,30.00,10.0,NNW,3.5,-,N/A,,Mostly Cloudy,330,2013-05-08 17:55:00
2:15 PM,64.4,51.8,64,30.01,10.0,West,8.1,-,N/A,,Overcast,270,2013-05-08 18:15:00
2:35 PM,62.6,53.6,72,30.01,10.0,West,9.2,-,N/A,,Overcast,270,2013-05-08 18:35:00
2:55 PM,62.6,53.6,72,30.01,10.0,West,8.1,-,N/A,,Overcast,260,2013-05-08 18:55:00
3:15 PM,64.4,53.6,68,30.01,10.0,North,-9999.0,-,N/A,,Mostly Cloudy,0,2013-05-08 19:15:00
3:35 PM,64.4,53.6,68,30.01,10.0,West,3.5,-,N/A,,Mostly Cloudy,260,2013-05-08 19:35:00
3:55 PM,64.4,53.6,68,30.01,10.0,SW,6.9,-,N/A,,Overcast,230,2013-05-08 19:55:00
4:15 PM,62.6,55.4,77,30.01,10.0,WNW,5.8,-,N/A,,Overcast,300,2013-05-08 20:15:00
4:35 PM,64.4,55.4,73,30.01,10.0,West,3.5,-,N/A,,Mostly Cloudy,270,2013-05-08 20:35:00
4:55 PM,64.4,55.4,73,30.01,10.0,North,-9999.0,-,N/A,,Overcast,0,2013-05-08 20:55:00
5:15 PM,66.2,55.4,68,30.01,10.0,WSW,3.5,-,N/A,,Mostly Cloudy,250,2013-05-08 21:15:00
5:35 PM,64.4,55.4,73,30.01,10.0,West,6.9,-,N/A,,Overcast,260,2013-05-08 21:35:00
5:55 PM,64.4,55.4,73,30.01,10.0,WNW,5.8,-,N/A,,Overcast,300,2013-05-08 21:55:00
6:15 PM,62.6,57.2,82,30.02,7.0,North,3.5,-,N/A,,Overcast,360,2013-05-08 22:15:00
6:35 PM,60.8,55.4,82,30.03,5.0,NNW,6.9,-,N/A,,Overcast,330,2013-05-08 22:35:00
6:55 PM,60.8,59.0,94,30.03,10.0,Calm,Calm,-,N/A,,Overcast,0,2013-05-08 22:55:00
7:15 PM,60.8,59.0,94,30.03,10.0,Calm,Calm,-,N/A,,Overcast,0,2013-05-08 23:15:00
7:35 PM,60.8,57.2,88,30.04,4.0,Calm,Calm,-,N/A,,Overcast,0,2013-05-08 23:35:00
7:55 PM,59.0,57.2,94,30.06,4.0,NW,3.5,-,N/A,,Overcast,320,2013-05-08 23:55:00
8:15 PM,59.0,57.2,94,30.05,1.0,Calm,Calm,-,N/A,,Overcast,0,2013-05-09 00:15:00
8:35 PM,59.0,57.2,94,30.05,2.0,Calm,Calm,-,N/A,,Overcast,0,2013-05-09 00:35:00
8:55 PM,59.0,55.4,88,30.06,7.0,Calm,Calm,-,N/A,,Scattered Clouds,0,2013-05-09 00:55:00
9:15 PM,57.2,55.4,94,30.06,10.0,Calm,Calm,-,N/A,,Mostly Cloudy,0,2013-05-09 01:15:00
9:35 PM,57.2,55.4,94,30.06,10.0,Calm,Calm,-,N/A,,Overcast,0,2013-05-09 01:35:00
9:55 PM,55.4,53.6,94,30.06,10.0,Calm,Calm,-,N/A,,Scattered Clouds,0,2013-05-09 01:55:00
10:15 PM,55.4,53.6,94,30.06,4.0,Calm,Calm,-,N/A,,Scattered Clouds,0,2013-05-09 02:15:00
10:35 PM,55.4,53.6,94,30.07,2.0,Calm,Calm,-,N/A,,Overcast,0,2013-05-09 02:35:00
10:55 PM,55.4,53.6,94,30.07,1.2,Calm,Calm,-,N/A,,Overcast,0,2013-05-09 02:55:00
11:15 PM,55.4,53.6,94,30.08,0.2,Calm,Calm,-,N/A,,Overcast,0,2013-05-09 03:15:00